Time,TemperatureF,DewpointF,PressureIn,WindDirection,WindDirectionDegrees,WindSpeedMPH,WindSpeedGustMPH,Humidity,HourlyPrecipIn,Conditions,Clouds,dailyrainin,SolarRadiationWatts/m^2,SoftwareType,DateUTC
2013-03-05 00:01:00,24.0,22.0,-100.00,East,84,4.0,6.0,92,0.02,,,0.06,0.000000,,2013-03-05 06:01:00,
2013-03-05 00:32:00,24.0,22.0,-100.00,East,91,4.0,7.0,90,0.01,,,0.07,0.000000,,2013-03-05 06:32:00,
2013-03-05 00:42:00,24.0,22.0,-100.00,East,91,4.0,7.0,90,0.01,,,0.07,0.000000,,2013-03-05 06:42:00,
2013-03-05 00:52:00,24.0,22.0,-100.00,East,91,4.0,7.0,90,0.01,,,0.07,0.000000,,2013-03-05 06:52:00,
2013-03-05 01:01:00,24.0,22.0,-100.00,East,91,4.0,7.0,90,0.01,,,0.07,0.000000,,2013-03-05 07:01:00,
2013-03-05 01:32:00,24.0,20.0,-100.00,ESE,103,5.0,11.0,85,0.00,,,0.07,0.000000,,2013-03-05 07:32:00,
2013-03-05 01:42:00,24.0,20.0,-100.00,ESE,103,5.0,11.0,85,0.00,,,0.07,0.000000,,2013-03-05 07:42:00,
2013-03-05 01:52:00,24.0,20.0,-100.00,ESE,103,5.0,11.0,85,0.00,,,0.07,0.000000,,2013-03-05 07:52:00,
2013-03-05 02:02:00,24.0,20.0,-100.00,ESE,103,5.0,11.0,85,0.00,,,0.07,0.000000,,2013-03-05 08:02:00,
2013-03-05 03:32:00,23.0,21.0,-100.00,ENE,73,4.0,9.0,92,-99.99,,,0.13,0.000000,,2013-03-05 09:32:00,
2013-03-05 03:43:00,23.0,21.0,-100.00,ENE,73,4.0,9.0,92,-99.99,,,0.13,0.000000,,2013-03-05 09:43:00,
2013-03-05 03:52:00,23.0,21.0,-100.00,ENE,73,4.0,9.0,92,-99.99,,,0.13,0.000000,,2013-03-05 09:52:00,
2013-03-05 04:01:00,23.0,21.0,-100.00,ENE,73,4.0,9.0,92,-99.99,,,0.13,0.000000,,2013-03-05 10:01:00,
2013-03-05 04:32:00,23.0,21.0,-100.00,ENE,75,5.0,7.0,92,0.03,,,0.16,0.000000,,2013-03-05 10:32:00,
2013-03-05 04:42:00,23.0,21.0,-100.00,ENE,75,5.0,7.0,92,0.03,,,0.16,0.000000,,2013-03-05 10:42:00,
2013-03-05 04:52:00,23.0,21.0,-100.00,ENE,75,5.0,7.0,92,0.03,,,0.16,0.000000,,2013-03-05 10:52:00,
2013-03-05 05:01:00,23.0,21.0,-100.00,ENE,75,5.0,7.0,92,0.03,,,0.16,0.000000,,2013-03-05 11:01:00,
2013-03-05 05:32:00,23.0,21.0,-100.00,ENE,68,5.0,8.0,92,0.03,,,0.19,0.000000,,2013-03-05 11:32:00,
2013-03-05 05:42:00,23.0,21.0,-100.00,ENE,68,5.0,8.0,92,0.03,,,0.19,0.000000,,2013-03-05 11:42:00,
2013-03-05 05:52:00,23.0,21.0,-100.00,ENE,68,5.0,8.0,92,0.03,,,0.19,0.000000,,2013-03-05 11:52:00,
2013-03-05 06:02:00,23.0,21.0,-100.00,ENE,68,5.0,8.0,92,0.03,,,0.19,0.000000,,2013-03-05 12:02:00,
2013-03-05 06:32:00,23.0,21.0,-100.00,ENE,60,4.0,7.0,92,0.04,,,0.23,0.000000,,2013-03-05 12:32:00,
2013-03-05 06:42:00,23.0,21.0,-100.00,ENE,60,4.0,7.0,92,0.04,,,0.23,0.000000,,2013-03-05 12:42:00,
2013-03-05 06:52:00,23.0,21.0,-100.00,ENE,60,4.0,7.0,92,0.04,,,0.23,0.000000,,2013-03-05 12:52:00,
2013-03-05 07:02:00,23.0,21.0,-100.00,ENE,60,4.0,7.0,92,0.04,,,0.23,0.000000,,2013-03-05 13:02:00,
2013-03-05 07:32:00,23.0,21.0,-100.00,ENE,68,4.0,10.0,92,0.03,,,0.26,1.000000,,2013-03-05 13:32:00,
2013-03-05 07:42:00,23.0,21.0,-100.00,ENE,68,4.0,10.0,92,0.03,,,0.26,1.000000,,2013-03-05 13:42:00,
2013-03-05 07:52:00,23.0,21.0,-100.00,ENE,68,4.0,10.0,92,0.03,,,0.26,1.000000,,2013-03-05 13:52:00,
2013-03-05 08:02:00,23.0,21.0,-100.00,ENE,68,4.0,10.0,92,0.03,,,0.26,1.000000,,2013-03-05 14:02:00,
2013-03-05 08:32:00,24.0,22.0,-100.00,ENE,57,6.0,12.0,92,0.03,,,0.29,15.000000,,2013-03-05 14:32:00,
2013-03-05 08:42:00,24.0,22.0,-100.00,ENE,57,6.0,12.0,92,0.03,,,0.29,15.000000,,2013-03-05 14:42:00,
2013-03-05 08:52:00,24.0,22.0,-100.00,ENE,57,6.0,12.0,92,0.03,,,0.29,15.000000,,2013-03-05 14:52:00,
2013-03-05 09:01:00,24.0,22.0,-100.00,ENE,57,6.0,12.0,92,0.03,,,0.29,15.000000,,2013-03-05 15:01:00,
2013-03-05 09:32:00,25.0,23.0,-100.00,NE,51,6.0,11.0,91,0.04,,,0.33,52.000000,,2013-03-05 15:32:00,
2013-03-05 09:42:00,25.0,23.0,-100.00,NE,51,6.0,11.0,91,0.04,,,0.33,52.000000,,2013-03-05 15:42:00,
2013-03-05 09:52:00,25.0,23.0,-100.00,NE,51,6.0,11.0,91,0.04,,,0.33,52.000000,,2013-03-05 15:52:00,
2013-03-05 10:01:00,25.0,23.0,-100.00,NE,51,6.0,11.0,91,0.04,,,0.33,52.000000,,2013-03-05 16:01:00,
2013-03-05 10:32:00,26.0,23.0,-100.00,NE,44,8.0,13.0,90,0.03,,,0.36,109.000000,,2013-03-05 16:32:00,
2013-03-05 10:42:00,26.0,23.0,-100.00,NE,44,8.0,13.0,90,0.03,,,0.36,109.000000,,2013-03-05 16:42:00,
2013-03-05 10:52:00,26.0,23.0,-100.00,NE,44,8.0,13.0,90,0.03,,,0.36,109.000000,,2013-03-05 16:52:00,
2013-03-05 11:01:00,26.0,23.0,-100.00,NE,44,8.0,13.0,90,0.03,,,0.36,109.000000,,2013-03-05 17:01:00,
2013-03-05 11:32:00,27.0,23.0,-100.00,NE,43,7.0,12.0,86,0.01,,,0.37,188.000000,,2013-03-05 17:32:00,
2013-03-05 11:42:00,27.0,23.0,-100.00,NE,43,7.0,12.0,86,0.01,,,0.37,188.000000,,2013-03-05 17:42:00,
2013-03-05 11:52:00,27.0,23.0,-100.00,NE,43,7.0,12.0,86,0.01,,,0.37,188.000000,,2013-03-05 17:52:00,
2013-03-05 12:02:00,27.0,23.0,-100.00,NE,43,7.0,12.0,86,0.01,,,0.37,188.000000,,2013-03-05 18:02:00,
2013-03-05 12:32:00,28.0,23.0,-100.00,NE,48,10.0,15.0,81,0.00,,,0.37,282.000000,,2013-03-05 18:32:00,
2013-03-05 12:42:00,28.0,23.0,-100.00,NE,48,10.0,15.0,81,0.00,,,0.37,282.000000,,2013-03-05 18:42:00,
2013-03-05 12:53:00,28.0,23.0,-100.00,NE,48,10.0,15.0,81,0.00,,,0.37,282.000000,,2013-03-05 18:53:00,
2013-03-05 13:01:00,28.0,23.0,-100.00,NE,48,10.0,15.0,81,0.00,,,0.37,282.000000,,2013-03-05 19:01:00,
2013-03-05 13:32:00,27.0,22.0,-100.00,NE,43,9.0,16.0,81,0.01,,,0.38,272.000000,,2013-03-05 19:32:00,
2013-03-05 13:42:00,27.0,22.0,-100.00,NE,43,9.0,16.0,81,0.01,,,0.38,272.000000,,2013-03-05 19:42:00,
2013-03-05 13:52:00,27.0,22.0,-100.00,NE,43,9.0,16.0,81,0.01,,,0.38,272.000000,,2013-03-05 19:52:00,
2013-03-05 14:01:00,27.0,22.0,-100.00,NE,43,9.0,16.0,81,0.01,,,0.38,272.000000,,2013-03-05 20:01:00,
2013-03-05 14:32:00,27.0,23.0,-100.00,NE,38,7.0,15.0,83,0.00,,,0.38,174.000000,,2013-03-05 20:32:00,
2013-03-05 14:42:00,27.0,23.0,-100.00,NE,38,7.0,15.0,83,0.00,,,0.38,174.000000,,2013-03-05 20:42:00,
2013-03-05 14:52:00,27.0,23.0,-100.00,NE,38,7.0,15.0,83,0.00,,,0.38,174.000000,,2013-03-05 20:52:00,
2013-03-05 15:02:00,27.0,23.0,-100.00,NE,38,7.0,15.0,83,0.00,,,0.38,174.000000,,2013-03-05 21:02:00,
2013-03-05 15:32:00,29.0,24.0,-100.00,North,10,6.0,12.0,81,0.00,,,0.38,189.000000,,2013-03-05 21:32:00,
2013-03-05 15:42:00,29.0,24.0,-100.00,North,10,6.0,12.0,81,0.00,,,0.38,189.000000,,2013-03-05 21:42:00,
2013-03-05 15:52:00,29.0,24.0,-100.00,North,10,6.0,12.0,81,0.00,,,0.38,189.000000,,2013-03-05 21:52:00,
2013-03-05 16:01:00,29.0,24.0,-100.00,North,10,6.0,12.0,81,0.00,,,0.38,189.000000,,2013-03-05 22:01:00,
2013-03-05 16:32:00,28.0,24.0,-100.00,North,357,6.0,11.0,86,0.01,,,0.39,159.000000,,2013-03-05 22:32:00,
2013-03-05 16:42:00,28.0,24.0,-100.00,North,357,6.0,11.0,86,0.01,,,0.39,159.000000,,2013-03-05 22:42:00,
2013-03-05 16:52:00,28.0,24.0,-100.00,North,357,6.0,11.0,86,0.01,,,0.39,159.000000,,2013-03-05 22:52:00,
2013-03-05 17:01:00,28.0,24.0,-100.00,North,357,6.0,11.0,86,0.01,,,0.39,159.000000,,2013-03-05 23:01:00,
2013-03-05 17:32:00,27.0,24.0,-100.00,NNE,15,8.0,17.0,90,0.01,,,0.40,69.000000,,2013-03-05 23:32:00,
2013-03-05 17:42:00,27.0,24.0,-100.00,NNE,15,8.0,17.0,90,0.01,,,0.40,69.000000,,2013-03-05 23:42:00,
2013-03-05 17:53:00,27.0,24.0,-100.00,NNE,15,8.0,17.0,90,0.01,,,0.40,69.000000,,2013-03-05 23:53:00,
2013-03-05 18:01:00,27.0,24.0,-100.00,NNE,15,8.0,17.0,90,0.01,,,0.40,69.000000,,2013-03-06 00:01:00,
2013-03-05 18:32:00,25.0,21.0,-100.00,NNE,14,8.0,17.0,85,0.00,,,0.39,26.000000,,2013-03-06 00:32:00,
2013-03-05 18:42:00,25.0,21.0,-100.00,NNE,14,8.0,17.0,85,0.00,,,0.39,26.000000,,2013-03-06 00:42:00,
2013-03-05 18:52:00,25.0,21.0,-100.00,NNE,14,8.0,17.0,85,0.00,,,0.39,26.000000,,2013-03-06 00:52:00,
2013-03-05 19:02:00,25.0,21.0,-100.00,NNE,14,8.0,17.0,85,0.00,,,0.39,26.000000,,2013-03-06 01:02:00,
2013-03-05 19:32:00,24.0,20.0,-100.00,NNE,31,6.0,15.0,85,0.00,,,-99.99,1.000000,,2013-03-06 01:32:00,
2013-03-05 19:42:00,24.0,20.0,-100.00,NNE,31,6.0,15.0,85,0.00,,,-99.99,1.000000,,2013-03-06 01:42:00,
2013-03-05 19:52:00,24.0,20.0,-100.00,NNE,31,6.0,15.0,85,0.00,,,-99.99,1.000000,,2013-03-06 01:52:00,
2013-03-05 20:01:00,24.0,20.0,-100.00,NNE,31,6.0,15.0,85,0.00,,,-99.99,1.000000,,2013-03-06 02:01:00,
2013-03-05 20:32:00,22.0,17.0,-100.00,NNE,25,5.0,11.0,80,0.00,,,0.39,0.000000,,2013-03-06 02:32:00,
2013-03-05 20:42:00,22.0,17.0,-100.00,NNE,25,5.0,11.0,80,0.00,,,0.39,0.000000,,2013-03-06 02:42:00,
2013-03-05 20:52:00,22.0,17.0,-100.00,NNE,25,5.0,11.0,80,0.00,,,0.39,0.000000,,2013-03-06 02:52:00,
2013-03-05 21:01:00,22.0,17.0,-100.00,NNE,25,5.0,11.0,80,0.00,,,0.39,0.000000,,2013-03-06 03:01:00,
2013-03-05 21:32:00,19.0,15.0,-100.00,North,6,4.0,9.0,84,0.00,,,0.38,0.000000,,2013-03-06 03:32:00,
2013-03-05 21:42:00,19.0,15.0,-100.00,North,6,4.0,9.0,84,0.00,,,0.38,0.000000,,2013-03-06 03:42:00,
2013-03-05 21:52:00,19.0,15.0,-100.00,North,6,4.0,9.0,84,0.00,,,0.38,0.000000,,2013-03-06 03:52:00,
2013-03-05 22:02:00,19.0,15.0,-100.00,North,6,4.0,9.0,84,0.00,,,0.38,0.000000,,2013-03-06 04:02:00,
2013-03-05 22:32:00,19.0,16.0,-100.00,NW,307,3.0,6.0,89,0.00,,,0.36,0.000000,,2013-03-06 04:32:00,
2013-03-05 22:42:00,19.0,16.0,-100.00,NW,307,3.0,6.0,89,0.00,,,0.36,0.000000,,2013-03-06 04:42:00,
2013-03-05 22:52:00,19.0,16.0,-100.00,NW,307,3.0,6.0,89,0.00,,,0.36,0.000000,,2013-03-06 04:52:00,
2013-03-05 23:02:00,19.0,16.0,-100.00,NW,307,3.0,6.0,89,0.00,,,0.36,0.000000,,2013-03-06 05:02:00,
2013-03-05 23:32:00,20.0,17.0,-100.00,North,8,3.0,5.0,88,0.00,,,0.34,0.000000,,2013-03-06 05:32:00,
2013-03-05 23:42:00,20.0,17.0,-100.00,North,8,3.0,5.0,88,0.00,,,0.34,0.000000,,2013-03-06 05:42:00,
2013-03-05 23:52:00,20.0,17.0,-100.00,North,8,3.0,5.0,88,0.00,,,0.34,0.000000,,2013-03-06 05:52:00,